Regional Weather Roundup
Issued by NWS Albany, NY

Home | Current Version | Previous Version | Graphics & Text | Print | Product List | Glossary Off
Versions: 1 2 3 4 5 6 7 8 9 10 11 12 13 14 15 16 17 18 19 20 21 22 23 24 25 26 27

000
ASUS41 KALY 032110
RWRALY

NEW YORK STATE HOURLY WEATHER ROUNDUP
NATIONAL WEATHER SERVICE ALBANY NY
500 PM EDT TUE MAY 03 2016

NOTE: "FAIR" INDICATES FEW OR NO CLOUDS BELOW 12,000 FEET WITH NO
SIGNIFICANT WEATHER AND/OR NO OBSTRUCTIONS TO VISIBILITY.

NYZ032-033-038>043-046>054-057>066-NYZ062>081-082-084-032200-
EAST


CITY           SKY/WX    TMP DP  RH WIND       PRES   REMARKS
ALBANY         CLOUDY    54  41  61 NE5       29.83S
GLENS FALLS    MOSUNNY   56  39  53 VRB3      29.82F
POUGHKEEPSIE   CLOUDY    54  49  83 N3        29.82R
NEWBURGH       CLOUDY    52  50  93 NE6       29.82F
MONTGOMERY     CLOUDY    53  49  86 N7        29.81S
WHITE PLAINS   DRIZZLE   50  50 100 SE6       29.81R FOG
ISLIP          LGT RAIN  51  49  92 NE6       29.82R FOG
NEW YORK CITY  CLOUDY    54  52  94 NE9       29.81R
CENTRAL PARK   CLOUDY    54  48  80 E9        29.83F
$$

NYZ005>009-017-018-044>046-055-056-032200-
CENTRAL


CITY           SKY/WX    TMP DP  RH WIND       PRES   REMARKS
FULTON         CLOUDY    58  42  55 N6        29.81F
SYRACUSE       CLOUDY    57  40  52 CALM      29.80F
ROME           CLOUDY    58  41  53 SE3       29.81F
ELMIRA         CLOUDY    54  41  61 S3        29.80F
BINGHAMTON     LGT RAIN  46  45  96 CALM      29.81S FOG
MONTICELLO     CLOUDY    46  46 100 CALM      29.83S
$$

NYZ026>034-041>043-087-032200-
NORTH


CITY           SKY/WX    TMP DP  RH WIND       PRES   REMARKS
WATERTOWN      PTSUNNY   60  40  47 N9        29.79F
FORT DRUM      NOT AVBL
MASSENA        SUNNY     58  36  43 NE12      29.84F
SARANAC LAKE   SUNNY     54  34  46 MISG      29.79F
PLATTSBURGH    NOT AVBL
$$

NYZ001>004-010>016-019>021-085-032200-
WEST


CITY           SKY/WX    TMP DP  RH WIND       PRES   REMARKS
NIAGARA FALLS  PTSUNNY   60  39  45 SE3       29.80F
BUFFALO        PTSUNNY   58  38  47 E6        29.80F
DUNKIRK        CLOUDY    51  43  74 W8        29.82F
JAMESTOWN      CLOUDY    50  39  66 NW8       29.81F
WELLSVILLE     CLOUDY    50  42  74 CALM      29.81F
ROCHESTER      PTSUNNY   57  41  55 N3        29.81F
PENN YAN       CLOUDY    55  40  56 N5        29.81F
$$

             KEY
       WCI = WIND CHILL INDEX
       VSB = VISIBILITY
       HX  = HEAT INDEX
$$




USA.gov is the U.S. government's official web portal to all federal, state and local government web resources and services.